When you browse on this site, cookies collect data to enhance your experience and personalize the content and advertising you see.
Visit our Privacy Policy to learn more. By continuing to use the site, you agree to this use of cookies and data.

Hourly Weather Kerns

Today, 10 August, Monday

Time Temperature Precipitation Wind Pressure Humidity
00:00 +20°C° 0 mm 2 mps 760 mmHg 82%
01:00 +19°C° 0 mm 2 mps 760 mmHg 82%
02:00 +19°C° 0 mm 2 mps 760 mmHg 82%
03:00 +19°C° 0 mm 2 mps 760 mmHg 81%
04:00 +19°C° 0 mm 2 mps 760 mmHg 81%
05:00 +19°C° 0 mm 2 mps 760 mmHg 80%
06:00 +19°C° 0 mm 3 mps 760 mmHg 80%
07:00 +18°C° 0 mm 3 mps 761 mmHg 79%
08:00 +21°C° 0 mm 3 mps 761 mmHg 70%
09:00 +25°C° 0 mm 3 mps 761 mmHg 60%
10:00 +27°C° 0 mm 4 mps 762 mmHg 50%
11:00 +28°C° 0 mm 4 mps 761 mmHg 48%
12:00 +28°C° 0 mm 5 mps 760 mmHg 47%
13:00 +29°C° 0 mm 5 mps 760 mmHg 45%
14:00 +28°C° 0 mm 5 mps 760 mmHg 46%
15:00 +27°C° 0 mm 5 mps 759 mmHg 46%
16:00 +26°C° 0 mm 4 mps 759 mmHg 47%
17:00 +23°C° 0 mm 4 mps 759 mmHg 54%
18:00 +21°C° 0 mm 4 mps 759 mmHg 61%
19:00 +18°C° 0 mm 3 mps 760 mmHg 68%
20:00 +18°C° 0 mm 3 mps 760 mmHg 70%
21:00 +17°C° 0 mm 3 mps 761 mmHg 71%
22:00 +17°C° 0 mm 2 mps 761 mmHg 72%
23:00 +17°C° 0 mm 2 mps 761 mmHg 72%

Tomorrow, 11 August, Tuesday

Time Temperature Precipitation Wind Pressure Humidity
00:00 +17°C° 0 mm 2 mps 761 mmHg 72%
01:00 +17°C° 0 mm 2 mps 761 mmHg 72%
02:00 +16°C° 0 mm 2 mps 761 mmHg 71%
03:00 +16°C° 0 mm 2 mps 761 mmHg 71%
04:00 +16°C° 0 mm 2 mps 761 mmHg 70%
05:00 +16°C° 0 mm 2 mps 761 mmHg 70%
06:00 +16°C° 0 mm 2 mps 761 mmHg 70%
07:00 +16°C° 0 mm 2 mps 762 mmHg 70%
08:00 +19°C° 0 mm 2 mps 762 mmHg 62%
09:00 +23°C° 0 mm 2 mps 762 mmHg 54%
10:00 +26°C° 0 mm 2 mps 762 mmHg 46%
11:00 +27°C° 0 mm 3 mps 762 mmHg 46%
12:00 +28°C° 0 mm 3 mps 761 mmHg 45%
13:00 +29°C° 0 mm 3 mps 760 mmHg 44%
14:00 +28°C° 0 mm 3 mps 760 mmHg 47%
15:00 +28°C° 0 mm 3 mps 759 mmHg 51%
16:00 +27°C° 0 mm 3 mps 759 mmHg 54%
17:00 +25°C° 0 mm 3 mps 759 mmHg 65%
18:00 +21°C° 0 mm 2 mps 760 mmHg 76%
19:00 +19°C° 0 mm 2 mps 760 mmHg 87%
20:00 +19°C° 0 mm 2 mps 761 mmHg 88%
21:00 +18°C° 0 mm 2 mps 762 mmHg 90%
22:00 +18°C° 0 mm 2 mps 762 mmHg 92%
23:00 +19°C° 0 mm 1 mps 762 mmHg 92%

Day after tomorrow, 12 August, Wednesday

Time Temperature Precipitation Wind Pressure Humidity
00:00 +19°C° 0 mm 1 mps 762 mmHg 93%
01:00 +19°C° 0 mm 1 mps 762 mmHg 93%
02:00 +19°C° 0 mm 1 mps 761 mmHg 94%
03:00 +18°C° 0 mm 1 mps 761 mmHg 94%
04:00 +18°C° 0 mm 1 mps 761 mmHg 94%
05:00 +18°C° 0 mm 1 mps 761 mmHg 94%
06:00 +18°C° 0 mm 1 mps 762 mmHg 94%
07:00 +18°C° 0 mm 1 mps 762 mmHg 94%
08:00 +22°C° 0 mm 1 mps 762 mmHg 82%
09:00 +25°C° 0 mm 1 mps 763 mmHg 70%
10:00 +28°C° 0 mm 1 mps 763 mmHg 57%
11:00 +29°C° 0 mm 2 mps 762 mmHg 55%
12:00 +30°C° 0 mm 2 mps 762 mmHg 52%
13:00 +30°C° 0 mm 2 mps 761 mmHg 50%
14:00 +30°C° 0 mm 2 mps 760 mmHg 53%
15:00 +29°C° 0 mm 2 mps 760 mmHg 57%
16:00 +28°C° 0 mm 2 mps 759 mmHg 60%
17:00 +26°C° 0 mm 2 mps 760 mmHg 72%
18:00 +24°C° 0 mm 2 mps 760 mmHg 83%
19:00 +20°C° 0 mm 2 mps 760 mmHg 95%
20:00 +20°C° 0 mm 2 mps 761 mmHg 95%
21:00 +20°C° 0 mm 1 mps 761 mmHg 96%
22:00 +20°C° 0 mm 1 mps 762 mmHg 96%
23:00 +20°C° 0 mm 1 mps 762 mmHg 96%

13 August, Thursday

Time Temperature Precipitation Wind Pressure Humidity
00:00 +20°C° 0 mm 1 mps 762 mmHg 96%
01:00 +20°C° 0 mm 1 mps 761 mmHg 96%
02:00 +20°C° 0 mm 1 mps 761 mmHg 96%
03:00 +20°C° 0 mm 1 mps 761 mmHg 96%
04:00 +18°C° 0 mm 2 mps 761 mmHg 96%
05:00 +19°C° 0 mm 2 mps 761 mmHg 96%
06:00 +19°C° 0 mm 2 mps 762 mmHg 95%
07:00 +19°C° 0 mm 2 mps 762 mmHg 94%
08:00 +21°C° 0 mm 2 mps 762 mmHg 85%
09:00 +24°C° 0 mm 2 mps 762 mmHg 75%
10:00 +26°C° 0 mm 3 mps 763 mmHg 66%
11:00 +28°C° 0 mm 3 mps 762 mmHg 60%
12:00 +29°C° 0 mm 3 mps 761 mmHg 55%
13:00 +30°C° 0 mm 3 mps 760 mmHg 50%
14:00 +30°C° 0 mm 3 mps 760 mmHg 53%
15:00 +29°C° 0 mm 3 mps 760 mmHg 56%
16:00 +28°C° 0 mm 3 mps 759 mmHg 59%
17:00 +26°C° 0 mm 3 mps 760 mmHg 71%
18:00 +22°C° 0 mm 3 mps 760 mmHg 83%
19:00 +20°C° 0 mm 3 mps 760 mmHg 94%
20:00 +20°C° 0 mm 3 mps 761 mmHg 95%
21:00 +19°C° 0 mm 3 mps 761 mmHg 96%
22:00 +19°C° 0 mm 3 mps 762 mmHg 97%
23:00 +19°C° 0 mm 2 mps 762 mmHg 97%

14 August, Friday

Time Temperature Precipitation Wind Pressure Humidity
00:00 +18°C° 0 mm 2 mps 761 mmHg 97%
01:00 +18°C° 0 mm 2 mps 761 mmHg 97%
02:00 +18°C° 0 mm 2 mps 761 mmHg 97%
03:00 +18°C° 0 mm 2 mps 761 mmHg 97%
04:00 +18°C° 0 mm 3 mps 760 mmHg 97%
05:00 +18°C° 0 mm 3 mps 760 mmHg 97%
06:00 +18°C° 0 mm 3 mps 761 mmHg 97%
07:00 +18°C° 0 mm 3 mps 761 mmHg 97%
08:00 +20°C° 0 mm 3 mps 761 mmHg 83%
09:00 +24°C° 0 mm 3 mps 761 mmHg 69%
10:00 +27°C° 0 mm 3 mps 762 mmHg 55%
11:00 +28°C° 0 mm 4 mps 761 mmHg 52%
12:00 +29°C° 0 mm 4 mps 760 mmHg 48%
13:00 +30°C° 0 mm 4 mps 760 mmHg 45%
14:00 +29°C° 0 mm 4 mps 759 mmHg 49%
15:00 +29°C° 0 mm 4 mps 759 mmHg 52%
16:00 +28°C° 0 mm 3 mps 759 mmHg 56%
17:00 +26°C° 0 mm 3 mps 759 mmHg 68%
18:00 +22°C° 0 mm 3 mps 760 mmHg 80%
19:00 +20°C° 0 mm 3 mps 760 mmHg 92%
20:00 +20°C° 0 mm 3 mps 760 mmHg 94%
21:00 +19°C° 0 mm 3 mps 761 mmHg 95%
22:00 +19°C° 0 mm 2 mps 761 mmHg 97%
23:00 +19°C° 0 mm 2 mps 761 mmHg 96%

15 August, Saturday

Time Temperature Precipitation Wind Pressure Humidity
00:00 +18°C° 0 mm 2 mps 761 mmHg 96%
01:00 +19°C° 0 mm 1 mps 760 mmHg 96%
02:00 +19°C° 0 mm 1 mps 760 mmHg 96%
03:00 +18°C° 0 mm 2 mps 760 mmHg 96%
04:00 +18°C° 0 mm 2 mps 760 mmHg 96%
05:00 +18°C° 0 mm 2 mps 760 mmHg 96%
06:00 +18°C° 0 mm 2 mps 761 mmHg 96%
07:00 +18°C° 0 mm 2 mps 761 mmHg 96%
08:00 +21°C° 0 mm 2 mps 761 mmHg 81%
09:00 +25°C° 0 mm 1 mps 761 mmHg 67%
10:00 +29°C° 0 mm 1 mps 761 mmHg 52%
11:00 +30°C° 0 mm 1 mps 760 mmHg 50%
12:00 +30°C° 0 mm 2 mps 759 mmHg 47%
13:00 +31°C° 0 mm 2 mps 759 mmHg 45%
14:00 +30°C° 0 mm 2 mps 758 mmHg 50%
15:00 +29°C° 0 mm 2 mps 758 mmHg 55%
16:00 +29°C° 0 mm 3 mps 758 mmHg 59%
17:00 +26°C° 0 mm 2 mps 758 mmHg 71%
18:00 +24°C° 0 mm 2 mps 759 mmHg 82%
19:00 +21°C° 0 mm 2 mps 759 mmHg 93%
20:00 +21°C° 0 mm 1 mps 760 mmHg 94%
21:00 +21°C° 0 mm 1 mps 760 mmHg 95%
22:00 +20°C° 0 mm 1 mps 760 mmHg 96%
23:00 +20°C° 0 mm 1 mps 760 mmHg 96%
Show more